owner,sensor,date,latitude,longitude,vertical_datum,mass_concentration_of_oxygen_in_sea_water,qcFlag 
DISL,ioos:station:DISL:MBLA:1,2008-09-05T00:03:00Z,30.4367,-88.0117,3.017,4.37,1111122 
DISL,ioos:station:DISL:MBLA:1,2008-09-05T00:05:00Z,30.4367,-88.0117,2.494,4.44,1111122 
DISL,ioos:station:DISL:MBLA:1,2008-09-05T00:07:00Z,30.4367,-88.0117,2.033,5.0,1111122 
DISL,ioos:station:DISL:MBLA:1,2008-09-05T00:10:00Z,30.4367,-88.0117,1.525,5.37,1111122 
DISL,ioos:station:DISL:MBLA:1,2008-09-05T00:13:00Z,30.4367,-88.0117,1.027,5.7,1111122 
DISL,ioos:station:DISL:MBLA:1,2008-09-05T00:15:00Z,30.4367,-88.0117,0.535,5.92,1111122 
DISL,ioos:station:DISL:MBLA:1,2008-09-05T01:02:00Z,30.4367,-88.0117,2.98,3.96,1111122 
DISL,ioos:station:DISL:MBLA:1,2008-09-05T01:05:00Z,30.4367,-88.0117,2.501,3.96,1111122 
DISL,ioos:station:DISL:MBLA:1,2008-09-05T01:07:00Z,30.4367,-88.0117,1.963,4.72,1111122 
DISL,ioos:station:DISL:MBLA:1,2008-09-05T01:10:00Z,30.4367,-88.0117,1.479,5.35,1111122 
DISL,ioos:station:DISL:MBLA:1,2008-09-05T01:12:00Z,30.4367,-88.0117,1.061,5.64,1111122 
DISL,ioos:station:DISL:MBLA:1,2008-09-05T01:15:00Z,30.4367,-88.0117,0.558,5.84,1111122 
DISL,ioos:station:DISL:MBLA:1,2008-09-05T02:03:00Z,30.4367,-88.0117,2.992,3.72,1111122 
DISL,ioos:station:DISL:MBLA:1,2008-09-05T02:05:00Z,30.4367,-88.0117,2.455,3.81,1111122 
DISL,ioos:station:DISL:MBLA:1,2008-09-05T02:07:00Z,30.4367,-88.0117,1.979,4.44,1111122 
DISL,ioos:station:DISL:MBLA:1,2008-09-05T02:10:00Z,30.4367,-88.0117,1.586,4.96,1111122 
DISL,ioos:station:DISL:MBLA:1,2008-09-05T02:13:00Z,30.4367,-88.0117,1.004,5.26,1111122 
DISL,ioos:station:DISL:MBLA:1,2008-09-05T02:15:00Z,30.4367,-88.0117,0.564,5.45,1111122 
DISL,ioos:station:DISL:MBLA:1,2008-09-05T03:02:00Z,30.4367,-88.0117,2.928,3.23,1111122 
DISL,ioos:station:DISL:MBLA:1,2008-09-05T03:05:00Z,30.4367,-88.0117,2.476,3.26,1111122 
DISL,ioos:station:DISL:MBLA:1,2008-09-05T03:07:00Z,30.4367,-88.0117,1.928,3.2,1111122 
DISL,ioos:station:DISL:MBLA:1,2008-09-05T03:10:00Z,30.4367,-88.0117,1.458,3.39,1111122 
DISL,ioos:station:DISL:MBLA:1,2008-09-05T03:12:00Z,30.4367,-88.0117,0.964,4.54,1111122 
DISL,ioos:station:DISL:MBLA:1,2008-09-05T03:15:00Z,30.4367,-88.0117,0.582,4.8,1111122 
DISL,ioos:station:DISL:MBLA:1,2008-09-05T04:02:00Z,30.4367,-88.0117,2.954,2.75,1111122 
DISL,ioos:station:DISL:MBLA:1,2008-09-05T04:05:00Z,30.4367,-88.0117,2.575,3.04,1111122 
DISL,ioos:station:DISL:MBLA:1,2008-09-05T04:08:00Z,30.4367,-88.0117,1.98,3.76,1111122 
DISL,ioos:station:DISL:MBLA:1,2008-09-05T04:10:00Z,30.4367,-88.0117,1.423,4.62,1111122 
DISL,ioos:station:DISL:MBLA:1,2008-09-05T04:13:00Z,30.4367,-88.0117,0.897,4.97,1111122 
DISL,ioos:station:DISL:MBLA:1,2008-09-05T04:15:00Z,30.4367,-88.0117,0.318,5.12,1111122 
DISL,ioos:station:DISL:MBLA:1,2008-09-05T05:03:00Z,30.4367,-88.0117,2.975,3.99,1111122 
DISL,ioos:station:DISL:MBLA:1,2008-09-05T05:05:00Z,30.4367,-88.0117,2.512,4.13,1111122 
DISL,ioos:station:DISL:MBLA:1,2008-09-05T05:07:00Z,30.4367,-88.0117,1.986,4.66,1111122 
DISL,ioos:station:DISL:MBLA:1,2008-09-05T05:10:00Z,30.4367,-88.0117,1.426,4.94,1111122 
DISL,ioos:station:DISL:MBLA:1,2008-09-05T05:12:00Z,30.4367,-88.0117,0.907,5.14,1111122 
DISL,ioos:station:DISL:MBLA:1,2008-09-05T05:15:00Z,30.4367,-88.0117,0.632,5.27,1111122 
DISL,ioos:station:DISL:MBLA:1,2008-09-05T06:02:00Z,30.4367,-88.0117,2.943,3.65,1111122 
DISL,ioos:station:DISL:MBLA:1,2008-09-05T06:05:00Z,30.4367,-88.0117,2.481,3.63,1111122 
DISL,ioos:station:DISL:MBLA:1,2008-09-05T06:07:00Z,30.4367,-88.0117,2.025,3.87,1111122 
DISL,ioos:station:DISL:MBLA:1,2008-09-05T06:10:00Z,30.4367,-88.0117,1.46,4.17,1111122 
DISL,ioos:station:DISL:MBLA:1,2008-09-05T06:12:00Z,30.4367,-88.0117,0.927,4.71,1111122 
DISL,ioos:station:DISL:MBLA:1,2008-09-05T06:15:00Z,30.4367,-88.0117,0.399,4.86,1111122 
DISL,ioos:station:DISL:MBLA:1,2008-09-05T07:03:00Z,30.4367,-88.0117,2.98,3.66,1111122 
DISL,ioos:station:DISL:MBLA:1,2008-09-05T07:05:00Z,30.4367,-88.0117,2.452,3.84,1111122 
DISL,ioos:station:DISL:MBLA:1,2008-09-05T07:07:00Z,30.4367,-88.0117,2.001,4.19,1111122 
DISL,ioos:station:DISL:MBLA:1,2008-09-05T07:10:00Z,30.4367,-88.0117,1.438,4.59,1111122 
DISL,ioos:station:DISL:MBLA:1,2008-09-05T07:12:00Z,30.4367,-88.0117,0.949,4.9,1111122 
DISL,ioos:station:DISL:MBLA:1,2008-09-05T07:15:00Z,30.4367,-88.0117,0.321,5.08,1111122 
DISL,ioos:station:DISL:MBLA:1,2008-09-05T08:03:00Z,30.4367,-88.0117,2.996,3.92,1111122 
DISL,ioos:station:DISL:MBLA:1,2008-09-05T08:05:00Z,30.4367,-88.0117,2.462,4.59,1111122 
DISL,ioos:station:DISL:MBLA:1,2008-09-05T08:07:00Z,30.4367,-88.0117,2.015,4.84,1111122 
DISL,ioos:station:DISL:MBLA:1,2008-09-05T08:10:00Z,30.4367,-88.0117,1.442,5.09,1111122 
DISL,ioos:station:DISL:MBLA:1,2008-09-05T08:12:00Z,30.4367,-88.0117,0.906,5.19,1111122 
DISL,ioos:station:DISL:MBLA:1,2008-09-05T08:15:00Z,30.4367,-88.0117,0.491,5.27,1111122 
DISL,ioos:station:DISL:MBLA:1,2008-09-05T09:03:00Z,30.4367,-88.0117,2.998,3.26,1111122 
DISL,ioos:station:DISL:MBLA:1,2008-09-05T09:05:00Z,30.4367,-88.0117,2.47,3.33,1111122 
DISL,ioos:station:DISL:MBLA:1,2008-09-05T09:07:00Z,30.4367,-88.0117,2.012,4.18,1111122 
DISL,ioos:station:DISL:MBLA:1,2008-09-05T09:10:00Z,30.4367,-88.0117,1.449,4.75,1111122 
DISL,ioos:station:DISL:MBLA:1,2008-09-05T09:13:00Z,30.4367,-88.0117,0.939,5.01,1111122 
DISL,ioos:station:DISL:MBLA:1,2008-09-05T09:15:00Z,30.4367,-88.0117,0.412,5.2,1111122 
DISL,ioos:station:DISL:MBLA:1,2008-09-05T10:03:00Z,30.4367,-88.0117,3.002,2.24,1111122 
DISL,ioos:station:DISL:MBLA:1,2008-09-05T10:05:00Z,30.4367,-88.0117,2.463,2.53,1111122 
DISL,ioos:station:DISL:MBLA:1,2008-09-05T10:07:00Z,30.4367,-88.0117,2.011,3.1,1111122 
DISL,ioos:station:DISL:MBLA:1,2008-09-05T10:10:00Z,30.4367,-88.0117,1.446,3.68,1111122 
DISL,ioos:station:DISL:MBLA:1,2008-09-05T10:12:00Z,30.4367,-88.0117,0.916,4.14,1111122 
DISL,ioos:station:DISL:MBLA:1,2008-09-05T10:15:00Z,30.4367,-88.0117,0.565,4.38,1111122 
DISL,ioos:station:DISL:MBLA:1,2008-09-05T11:03:00Z,30.4367,-88.0117,2.987,2.26,1111122 
DISL,ioos:station:DISL:MBLA:1,2008-09-05T11:05:00Z,30.4367,-88.0117,2.46,2.29,1111122 
DISL,ioos:station:DISL:MBLA:1,2008-09-05T11:07:00Z,30.4367,-88.0117,1.995,2.63,1111122 
DISL,ioos:station:DISL:MBLA:1,2008-09-05T11:10:00Z,30.4367,-88.0117,1.438,3.05,1111122 
DISL,ioos:station:DISL:MBLA:1,2008-09-05T11:12:00Z,30.4367,-88.0117,0.917,3.32,1111122 
DISL,ioos:station:DISL:MBLA:1,2008-09-05T11:15:00Z,30.4367,-88.0117,0.549,3.44,1111122 
DISL,ioos:station:DISL:MBLA:1,2008-09-05T12:03:00Z,30.4367,-88.0117,2.971,1.95,1111122 
DISL,ioos:station:DISL:MBLA:1,2008-09-05T12:05:00Z,30.4367,-88.0117,2.439,1.98,1111122 
DISL,ioos:station:DISL:MBLA:1,2008-09-05T12:07:00Z,30.4367,-88.0117,1.975,2.09,1111122 
DISL,ioos:station:DISL:MBLA:1,2008-09-05T12:10:00Z,30.4367,-88.0117,1.414,2.47,1111122 
DISL,ioos:station:DISL:MBLA:1,2008-09-05T12:12:00Z,30.4367,-88.0117,0.884,2.85,1111122 
DISL,ioos:station:DISL:MBLA:1,2008-09-05T12:15:00Z,30.4367,-88.0117,0.512,3.07,1111122 
DISL,ioos:station:DISL:MBLA:1,2008-09-05T13:03:00Z,30.4367,-88.0117,2.979,1.94,1111122 
DISL,ioos:station:DISL:MBLA:1,2008-09-05T13:05:00Z,30.4367,-88.0117,2.422,2.0,1111122 
DISL,ioos:station:DISL:MBLA:1,2008-09-05T13:07:00Z,30.4367,-88.0117,1.946,2.59,1111122 
DISL,ioos:station:DISL:MBLA:1,2008-09-05T13:10:00Z,30.4367,-88.0117,1.438,3.37,1111122 
DISL,ioos:station:DISL:MBLA:1,2008-09-05T13:12:00Z,30.4367,-88.0117,0.902,3.55,1111122 
DISL,ioos:station:DISL:MBLA:1,2008-09-05T13:15:00Z,30.4367,-88.0117,0.433,3.86,1111122 
DISL,ioos:station:DISL:MBLA:1,2008-09-05T14:03:00Z,30.4367,-88.0117,3.081,3.31,1111122 
DISL,ioos:station:DISL:MBLA:1,2008-09-05T14:05:00Z,30.4367,-88.0117,2.546,3.51,1111122 
DISL,ioos:station:DISL:MBLA:1,2008-09-05T14:08:00Z,30.4367,-88.0117,1.91,3.61,1111122 
DISL,ioos:station:DISL:MBLA:1,2008-09-05T14:10:00Z,30.4367,-88.0117,1.395,4.09,1111122 
DISL,ioos:station:DISL:MBLA:1,2008-09-05T14:13:00Z,30.4367,-88.0117,1.021,4.13,1111122 
DISL,ioos:station:DISL:MBLA:1,2008-09-05T14:15:00Z,30.4367,-88.0117,0.393,4.4,1111122 
DISL,ioos:station:DISL:MBLA:1,2008-09-05T15:03:00Z,30.4367,-88.0117,3.033,2.9,1111122 
DISL,ioos:station:DISL:MBLA:1,2008-09-05T15:05:00Z,30.4367,-88.0117,2.46,3.21,1111122 
DISL,ioos:station:DISL:MBLA:1,2008-09-05T15:07:00Z,30.4367,-88.0117,1.956,3.78,1111122 
DISL,ioos:station:DISL:MBLA:1,2008-09-05T15:10:00Z,30.4367,-88.0117,1.443,4.07,1111122 
DISL,ioos:station:DISL:MBLA:1,2008-09-05T15:12:00Z,30.4367,-88.0117,1.077,4.22,1111122 
DISL,ioos:station:DISL:MBLA:1,2008-09-05T15:15:00Z,30.4367,-88.0117,0.443,4.35,1111122 
DISL,ioos:station:DISL:MBLA:1,2008-09-05T16:03:00Z,30.4367,-88.0117,3.021,2.64,1111122 
DISL,ioos:station:DISL:MBLA:1,2008-09-05T16:05:00Z,30.4367,-88.0117,2.444,3.29,1111122 
DISL,ioos:station:DISL:MBLA:1,2008-09-05T16:07:00Z,30.4367,-88.0117,1.93,3.95,1111122 
DISL,ioos:station:DISL:MBLA:1,2008-09-05T16:10:00Z,30.4367,-88.0117,1.41,4.32,1111122 
DISL,ioos:station:DISL:MBLA:1,2008-09-05T16:12:00Z,30.4367,-88.0117,1.042,4.44,1111122 
DISL,ioos:station:DISL:MBLA:1,2008-09-05T16:15:00Z,30.4367,-88.0117,0.409,4.6,1111122 
DISL,ioos:station:DISL:MBLA:1,2008-09-05T17:03:00Z,30.4367,-88.0117,3.042,4.14,1111122 
DISL,ioos:station:DISL:MBLA:1,2008-09-05T17:05:00Z,30.4367,-88.0117,2.55,4.29,1111122 
DISL,ioos:station:DISL:MBLA:1,2008-09-05T17:08:00Z,30.4367,-88.0117,2.06,4.52,1111122 
DISL,ioos:station:DISL:MBLA:1,2008-09-05T17:10:00Z,30.4367,-88.0117,1.396,4.67,1111122 
DISL,ioos:station:DISL:MBLA:1,2008-09-05T17:13:00Z,30.4367,-88.0117,1.03,4.97,1111122 
DISL,ioos:station:DISL:MBLA:1,2008-09-05T17:17:00Z,30.4367,-88.0117,0.517,5.11,1111122 
DISL,ioos:station:DISL:MBLA:1,2008-09-05T18:02:00Z,30.4367,-88.0117,3.014,4.32,1111122 
DISL,ioos:station:DISL:MBLA:1,2008-09-05T18:05:00Z,30.4367,-88.0117,2.515,4.5,1111122 
DISL,ioos:station:DISL:MBLA:1,2008-09-05T18:08:00Z,30.4367,-88.0117,1.924,4.7,1111122 
DISL,ioos:station:DISL:MBLA:1,2008-09-05T18:10:00Z,30.4367,-88.0117,1.428,4.93,1111122 
DISL,ioos:station:DISL:MBLA:1,2008-09-05T18:13:00Z,30.4367,-88.0117,0.876,5.12,1111122 
DISL,ioos:station:DISL:MBLA:1,2008-09-05T18:15:00Z,30.4367,-88.0117,0.547,5.3,1111122 
DISL,ioos:station:DISL:MBLA:1,2008-09-05T19:03:00Z,30.4367,-88.0117,3.01,4.32,1111122 
DISL,ioos:station:DISL:MBLA:1,2008-09-05T19:05:00Z,30.4367,-88.0117,2.586,4.35,1111122 
DISL,ioos:station:DISL:MBLA:1,2008-09-05T19:08:00Z,30.4367,-88.0117,1.937,4.64,1111122 
DISL,ioos:station:DISL:MBLA:1,2008-09-05T19:10:00Z,30.4367,-88.0117,1.433,4.96,1111122 
DISL,ioos:station:DISL:MBLA:1,2008-09-05T19:13:00Z,30.4367,-88.0117,1.071,5.4,1111122 
DISL,ioos:station:DISL:MBLA:1,2008-09-05T19:16:00Z,30.4367,-88.0117,0.461,5.83,1111122 
DISL,ioos:station:DISL:MBLA:1,2008-09-05T20:02:00Z,30.4367,-88.0117,3.012,4.17,1111122 
DISL,ioos:station:DISL:MBLA:1,2008-09-05T20:05:00Z,30.4367,-88.0117,2.444,4.4,1111122 
DISL,ioos:station:DISL:MBLA:1,2008-09-05T20:07:00Z,30.4367,-88.0117,1.933,4.66,1111122 
DISL,ioos:station:DISL:MBLA:1,2008-09-05T20:10:00Z,30.4367,-88.0117,1.438,4.98,1111122 
DISL,ioos:station:DISL:MBLA:1,2008-09-05T20:12:00Z,30.4367,-88.0117,1.074,5.23,1111122 
DISL,ioos:station:DISL:MBLA:1,2008-09-05T20:15:00Z,30.4367,-88.0117,0.53,5.49,1111122 
DISL,ioos:station:DISL:MBLA:1,2008-09-05T21:03:00Z,30.4367,-88.0117,3.024,3.57,1111122 
DISL,ioos:station:DISL:MBLA:1,2008-09-05T21:05:00Z,30.4367,-88.0117,2.455,3.87,1111122 
DISL,ioos:station:DISL:MBLA:1,2008-09-05T21:07:00Z,30.4367,-88.0117,1.882,4.42,1111122 
DISL,ioos:station:DISL:MBLA:1,2008-09-05T21:10:00Z,30.4367,-88.0117,1.562,4.89,1111122 
DISL,ioos:station:DISL:MBLA:1,2008-09-05T21:13:00Z,30.4367,-88.0117,0.89,5.26,1111122 
DISL,ioos:station:DISL:MBLA:1,2008-09-05T21:15:00Z,30.4367,-88.0117,0.424,5.57,1111122 
DISL,ioos:station:DISL:MBLA:1,2008-09-05T22:02:00Z,30.4367,-88.0117,3.004,3.55,1111122 
DISL,ioos:station:DISL:MBLA:1,2008-09-05T22:05:00Z,30.4367,-88.0117,2.446,3.95,1111122 
DISL,ioos:station:DISL:MBLA:1,2008-09-05T22:07:00Z,30.4367,-88.0117,1.943,4.37,1111122 
DISL,ioos:station:DISL:MBLA:1,2008-09-05T22:10:00Z,30.4367,-88.0117,1.451,4.94,1111122 
DISL,ioos:station:DISL:MBLA:1,2008-09-05T22:12:00Z,30.4367,-88.0117,0.912,5.39,1111122 
DISL,ioos:station:DISL:MBLA:1,2008-09-05T22:15:00Z,30.4367,-88.0117,0.525,5.74,1111122 
DISL,ioos:station:DISL:MBLA:1,2008-09-05T23:03:00Z,30.4367,-88.0117,3.023,3.79,1111122 
DISL,ioos:station:DISL:MBLA:1,2008-09-05T23:05:00Z,30.4367,-88.0117,2.46,3.97,1111122 
DISL,ioos:station:DISL:MBLA:1,2008-09-05T23:07:00Z,30.4367,-88.0117,1.96,4.17,1111122 
DISL,ioos:station:DISL:MBLA:1,2008-09-05T23:10:00Z,30.4367,-88.0117,1.455,4.66,1111122 
DISL,ioos:station:DISL:MBLA:1,2008-09-05T23:13:00Z,30.4367,-88.0117,0.953,5.22,1111122 
DISL,ioos:station:DISL:MBLA:1,2008-09-05T23:15:00Z,30.4367,-88.0117,0.392,5.54,1111122 
DISL,ioos:station:DISL:MBLA:1,2008-09-06T00:02:00Z,30.4367,-88.0117,2.976,4.47,1111122 
DISL,ioos:station:DISL:MBLA:1,2008-09-06T00:05:00Z,30.4367,-88.0117,2.432,4.55,1111122 
DISL,ioos:station:DISL:MBLA:1,2008-09-06T00:07:00Z,30.4367,-88.0117,1.96,4.86,1111122 
DISL,ioos:station:DISL:MBLA:1,2008-09-06T00:10:00Z,30.4367,-88.0117,1.491,5.14,1111122 
DISL,ioos:station:DISL:MBLA:1,2008-09-06T00:12:00Z,30.4367,-88.0117,1.068,5.44,1111122 
DISL,ioos:station:DISL:MBLA:1,2008-09-06T00:15:00Z,30.4367,-88.0117,0.374,5.64,1111122 
DISL,ioos:station:DISL:MBLA:1,2008-09-06T01:03:00Z,30.4367,-88.0117,2.982,4.48,1111122 
DISL,ioos:station:DISL:MBLA:1,2008-09-06T01:05:00Z,30.4367,-88.0117,2.45,4.72,1111122 
DISL,ioos:station:DISL:MBLA:1,2008-09-06T01:07:00Z,30.4367,-88.0117,1.981,4.9,1111122 
DISL,ioos:station:DISL:MBLA:1,2008-09-06T01:10:00Z,30.4367,-88.0117,1.44,5.36,1111122 
DISL,ioos:station:DISL:MBLA:1,2008-09-06T01:12:00Z,30.4367,-88.0117,0.921,5.42,1111122 
DISL,ioos:station:DISL:MBLA:1,2008-09-06T01:15:00Z,30.4367,-88.0117,0.388,5.58,1111122 
DISL,ioos:station:DISL:MBLA:1,2008-09-06T02:03:00Z,30.4367,-88.0117,2.977,4.63,1111122 
DISL,ioos:station:DISL:MBLA:1,2008-09-06T02:05:00Z,30.4367,-88.0117,2.443,4.75,1111122 
DISL,ioos:station:DISL:MBLA:1,2008-09-06T02:07:00Z,30.4367,-88.0117,1.97,4.91,1111122 
DISL,ioos:station:DISL:MBLA:1,2008-09-06T02:10:00Z,30.4367,-88.0117,1.49,5.14,1111122 
DISL,ioos:station:DISL:MBLA:1,2008-09-06T02:12:00Z,30.4367,-88.0117,0.92,5.15,1111122 
DISL,ioos:station:DISL:MBLA:1,2008-09-06T02:15:00Z,30.4367,-88.0117,0.473,5.25,1111122 
DISL,ioos:station:DISL:MBLA:1,2008-09-06T03:03:00Z,30.4367,-88.0117,2.966,4.43,1111122 
DISL,ioos:station:DISL:MBLA:1,2008-09-06T03:05:00Z,30.4367,-88.0117,2.496,4.63,1111122 
DISL,ioos:station:DISL:MBLA:1,2008-09-06T03:07:00Z,30.4367,-88.0117,1.965,5.03,1111122 
DISL,ioos:station:DISL:MBLA:1,2008-09-06T03:10:00Z,30.4367,-88.0117,1.406,5.03,1111122 
DISL,ioos:station:DISL:MBLA:1,2008-09-06T03:12:00Z,30.4367,-88.0117,1.059,4.99,1111122 
DISL,ioos:station:DISL:MBLA:1,2008-09-06T03:15:00Z,30.4367,-88.0117,0.54,5.1,1111122 
DISL,ioos:station:DISL:MBLA:1,2008-09-06T04:03:00Z,30.4367,-88.0117,3.01,4.33,1111122 
DISL,ioos:station:DISL:MBLA:1,2008-09-06T04:05:00Z,30.4367,-88.0117,2.475,4.32,1111122 
DISL,ioos:station:DISL:MBLA:1,2008-09-06T04:07:00Z,30.4367,-88.0117,1.935,4.42,1111122 
DISL,ioos:station:DISL:MBLA:1,2008-09-06T04:10:00Z,30.4367,-88.0117,1.45,4.49,1111122 
DISL,ioos:station:DISL:MBLA:1,2008-09-06T04:12:00Z,30.4367,-88.0117,0.926,4.68,1111122 
DISL,ioos:station:DISL:MBLA:1,2008-09-06T04:15:00Z,30.4367,-88.0117,0.604,4.88,1111122 
DISL,ioos:station:DISL:MBLA:1,2008-09-06T05:02:00Z,30.4367,-88.0117,2.961,3.61,1111122 
DISL,ioos:station:DISL:MBLA:1,2008-09-06T05:05:00Z,30.4367,-88.0117,2.502,3.65,1111122 
DISL,ioos:station:DISL:MBLA:1,2008-09-06T05:07:00Z,30.4367,-88.0117,1.965,3.83,1111122 
DISL,ioos:station:DISL:MBLA:1,2008-09-06T05:10:00Z,30.4367,-88.0117,1.405,4.04,1111122 
DISL,ioos:station:DISL:MBLA:1,2008-09-06T05:12:00Z,30.4367,-88.0117,0.957,4.22,1111122 
DISL,ioos:station:DISL:MBLA:1,2008-09-06T05:15:00Z,30.4367,-88.0117,0.414,4.43,1111122 
DISL,ioos:station:DISL:MBLA:1,2008-09-06T06:03:00Z,30.4367,-88.0117,3.001,3.2,1111122 
DISL,ioos:station:DISL:MBLA:1,2008-09-06T06:05:00Z,30.4367,-88.0117,2.468,3.02,1111122 
DISL,ioos:station:DISL:MBLA:1,2008-09-06T06:07:00Z,30.4367,-88.0117,1.997,3.03,1111122 
DISL,ioos:station:DISL:MBLA:1,2008-09-06T06:10:00Z,30.4367,-88.0117,1.446,3.27,1111122 
DISL,ioos:station:DISL:MBLA:1,2008-09-06T06:12:00Z,30.4367,-88.0117,0.932,3.63,1111122 
DISL,ioos:station:DISL:MBLA:1,2008-09-06T06:15:00Z,30.4367,-88.0117,0.556,3.8,1111122 
DISL,ioos:station:DISL:MBLA:1,2008-09-06T07:03:00Z,30.4367,-88.0117,2.998,2.57,1111122 
DISL,ioos:station:DISL:MBLA:1,2008-09-06T07:05:00Z,30.4367,-88.0117,2.46,2.52,1111122 
DISL,ioos:station:DISL:MBLA:1,2008-09-06T07:07:00Z,30.4367,-88.0117,1.99,2.46,1111122 
DISL,ioos:station:DISL:MBLA:1,2008-09-06T07:10:00Z,30.4367,-88.0117,1.425,2.76,1111122 
DISL,ioos:station:DISL:MBLA:1,2008-09-06T07:12:00Z,30.4367,-88.0117,0.888,3.23,1111122 
DISL,ioos:station:DISL:MBLA:1,2008-09-06T07:15:00Z,30.4367,-88.0117,0.523,3.45,1111122 
DISL,ioos:station:DISL:MBLA:1,2008-09-06T08:02:00Z,30.4367,-88.0117,2.95,1.79,1111122 
DISL,ioos:station:DISL:MBLA:1,2008-09-06T08:05:00Z,30.4367,-88.0117,2.485,1.74,1111122 
DISL,ioos:station:DISL:MBLA:1,2008-09-06T08:07:00Z,30.4367,-88.0117,1.955,1.7,1111122 
DISL,ioos:station:DISL:MBLA:1,2008-09-06T08:10:00Z,30.4367,-88.0117,1.459,1.82,1111122 
DISL,ioos:station:DISL:MBLA:1,2008-09-06T08:12:00Z,30.4367,-88.0117,1.111,2.05,1111122 
DISL,ioos:station:DISL:MBLA:1,2008-09-06T08:15:00Z,30.4367,-88.0117,0.466,2.63,1111122 
DISL,ioos:station:DISL:MBLA:1,2008-09-06T09:03:00Z,30.4367,-88.0117,2.951,1.51,1111122 
DISL,ioos:station:DISL:MBLA:1,2008-09-06T09:05:00Z,30.4367,-88.0117,2.505,1.39,1111122 
DISL,ioos:station:DISL:MBLA:1,2008-09-06T09:08:00Z,30.4367,-88.0117,1.975,1.61,1111122 
DISL,ioos:station:DISL:MBLA:1,2008-09-06T09:10:00Z,30.4367,-88.0117,1.561,2.14,1111122 
DISL,ioos:station:DISL:MBLA:1,2008-09-06T09:13:00Z,30.4367,-88.0117,0.931,2.39,1111122 
DISL,ioos:station:DISL:MBLA:1,2008-09-06T09:15:00Z,30.4367,-88.0117,0.428,2.6,1111122 
DISL,ioos:station:DISL:MBLA:1,2008-09-06T10:03:00Z,30.4367,-88.0117,2.937,1.08,1111122 
DISL,ioos:station:DISL:MBLA:1,2008-09-06T10:05:00Z,30.4367,-88.0117,2.474,1.08,1111122 
DISL,ioos:station:DISL:MBLA:1,2008-09-06T10:07:00Z,30.4367,-88.0117,1.959,1.15,1111122 
DISL,ioos:station:DISL:MBLA:1,2008-09-06T10:10:00Z,30.4367,-88.0117,1.48,1.38,1111122 
DISL,ioos:station:DISL:MBLA:1,2008-09-06T10:12:00Z,30.4367,-88.0117,1.057,1.71,1111122 
DISL,ioos:station:DISL:MBLA:1,2008-09-06T10:15:00Z,30.4367,-88.0117,0.237,2.03,1111122 
DISL,ioos:station:DISL:MBLA:1,2008-09-06T11:03:00Z,30.4367,-88.0117,2.954,1.01,1111122 
DISL,ioos:station:DISL:MBLA:1,2008-09-06T11:05:00Z,30.4367,-88.0117,2.498,1.02,1111122 
DISL,ioos:station:DISL:MBLA:1,2008-09-06T11:07:00Z,30.4367,-88.0117,1.98,1.4,1111122 
DISL,ioos:station:DISL:MBLA:1,2008-09-06T11:10:00Z,30.4367,-88.0117,1.44,1.72,1111122 
DISL,ioos:station:DISL:MBLA:1,2008-09-06T11:12:00Z,30.4367,-88.0117,0.925,1.94,1111122 
DISL,ioos:station:DISL:MBLA:1,2008-09-06T11:15:00Z,30.4367,-88.0117,0.442,2.13,1111122 
DISL,ioos:station:DISL:MBLA:1,2008-09-06T12:03:00Z,30.4367,-88.0117,2.964,1.08,1111122 
DISL,ioos:station:DISL:MBLA:1,2008-09-06T12:05:00Z,30.4367,-88.0117,2.431,1.1,1111122 
DISL,ioos:station:DISL:MBLA:1,2008-09-06T12:07:00Z,30.4367,-88.0117,1.968,1.38,1111122 
DISL,ioos:station:DISL:MBLA:1,2008-09-06T12:10:00Z,30.4367,-88.0117,1.488,1.61,1111122 
DISL,ioos:station:DISL:MBLA:1,2008-09-06T12:12:00Z,30.4367,-88.0117,0.908,1.71,1111122 
DISL,ioos:station:DISL:MBLA:1,2008-09-06T12:15:00Z,30.4367,-88.0117,0.527,1.83,1111122 
DISL,ioos:station:DISL:MBLA:1,2008-09-06T13:03:00Z,30.4367,-88.0117,3.022,1.1,1111122 
DISL,ioos:station:DISL:MBLA:1,2008-09-06T13:05:00Z,30.4367,-88.0117,2.434,1.19,1111122 
DISL,ioos:station:DISL:MBLA:1,2008-09-06T13:07:00Z,30.4367,-88.0117,1.94,1.34,1111122 
DISL,ioos:station:DISL:MBLA:1,2008-09-06T13:10:00Z,30.4367,-88.0117,1.449,1.39,1111122 
DISL,ioos:station:DISL:MBLA:1,2008-09-06T13:12:00Z,30.4367,-88.0117,0.931,1.43,1111122 
DISL,ioos:station:DISL:MBLA:1,2008-09-06T13:15:00Z,30.4367,-88.0117,0.558,1.46,1111122 
DISL,ioos:station:DISL:MBLA:1,2008-09-06T14:03:00Z,30.4367,-88.0117,3.044,1.01,1111122 
DISL,ioos:station:DISL:MBLA:1,2008-09-06T14:05:00Z,30.4367,-88.0117,2.411,1.04,1111122 
DISL,ioos:station:DISL:MBLA:1,2008-09-06T14:07:00Z,30.4367,-88.0117,1.912,1.22,1111122 
DISL,ioos:station:DISL:MBLA:1,2008-09-06T14:10:00Z,30.4367,-88.0117,1.404,1.28,1111122 
DISL,ioos:station:DISL:MBLA:1,2008-09-06T14:13:00Z,30.4367,-88.0117,1.035,1.33,1111122 
DISL,ioos:station:DISL:MBLA:1,2008-09-06T14:15:00Z,30.4367,-88.0117,0.572,1.4,1111122 
DISL,ioos:station:DISL:MBLA:1,2008-09-06T15:02:00Z,30.4367,-88.0117,3.01,0.9,1111122 
DISL,ioos:station:DISL:MBLA:1,2008-09-06T15:05:00Z,30.4367,-88.0117,2.421,0.97,1111122 
DISL,ioos:station:DISL:MBLA:1,2008-09-06T15:08:00Z,30.4367,-88.0117,2.057,1.04,1111122 
DISL,ioos:station:DISL:MBLA:1,2008-09-06T15:10:00Z,30.4367,-88.0117,1.569,1.12,1111122 
DISL,ioos:station:DISL:MBLA:1,2008-09-06T15:13:00Z,30.4367,-88.0117,1.041,1.23,1111122 
DISL,ioos:station:DISL:MBLA:1,2008-09-06T15:15:00Z,30.4367,-88.0117,0.564,1.3,1111122 
DISL,ioos:station:DISL:MBLA:1,2008-09-06T16:03:00Z,30.4367,-88.0117,3.077,0.74,1111122 
DISL,ioos:station:DISL:MBLA:1,2008-09-06T16:05:00Z,30.4367,-88.0117,2.416,0.82,1111122 
DISL,ioos:station:DISL:MBLA:1,2008-09-06T16:08:00Z,30.4367,-88.0117,2.061,0.94,1111122 
DISL,ioos:station:DISL:MBLA:1,2008-09-06T16:10:00Z,30.4367,-88.0117,1.565,1.04,1111122 
DISL,ioos:station:DISL:MBLA:1,2008-09-06T16:13:00Z,30.4367,-88.0117,1.043,1.15,1111122 
DISL,ioos:station:DISL:MBLA:1,2008-09-06T16:15:00Z,30.4367,-88.0117,0.574,1.22,1111122 
DISL,ioos:station:DISL:MBLA:1,2008-09-06T17:03:00Z,30.4367,-88.0117,3.009,0.64,1111122 
DISL,ioos:station:DISL:MBLA:1,2008-09-06T17:05:00Z,30.4367,-88.0117,2.43,0.65,1111122 
DISL,ioos:station:DISL:MBLA:1,2008-09-06T17:08:00Z,30.4367,-88.0117,2.075,0.72,1111122 
DISL,ioos:station:DISL:MBLA:1,2008-09-06T17:10:00Z,30.4367,-88.0117,1.417,0.88,1111122 
DISL,ioos:station:DISL:MBLA:1,2008-09-06T17:13:00Z,30.4367,-88.0117,1.046,0.99,1111122 
DISL,ioos:station:DISL:MBLA:1,2008-09-06T17:15:00Z,30.4367,-88.0117,0.584,1.06,1111122 
DISL,ioos:station:DISL:MBLA:1,2008-09-06T18:03:00Z,30.4367,-88.0117,3.033,0.57,1111122 
DISL,ioos:station:DISL:MBLA:1,2008-09-06T18:05:00Z,30.4367,-88.0117,2.539,0.61,1111122 
DISL,ioos:station:DISL:MBLA:1,2008-09-06T18:08:00Z,30.4367,-88.0117,1.938,0.67,1111122 
DISL,ioos:station:DISL:MBLA:1,2008-09-06T18:10:00Z,30.4367,-88.0117,1.43,0.76,1111122 
DISL,ioos:station:DISL:MBLA:1,2008-09-06T18:13:00Z,30.4367,-88.0117,1.058,0.86,1111122 
DISL,ioos:station:DISL:MBLA:1,2008-09-06T18:16:00Z,30.4367,-88.0117,0.434,0.94,1111122 
DISL,ioos:station:DISL:MBLA:1,2008-09-06T19:02:00Z,30.4367,-88.0117,3.013,0.54,1111122 
DISL,ioos:station:DISL:MBLA:1,2008-09-06T19:05:00Z,30.4367,-88.0117,2.419,0.57,1111122 
DISL,ioos:station:DISL:MBLA:1,2008-09-06T19:08:00Z,30.4367,-88.0117,2.07,0.62,1111122 
DISL,ioos:station:DISL:MBLA:1,2008-09-06T19:10:00Z,30.4367,-88.0117,1.406,0.7,1111122 
DISL,ioos:station:DISL:MBLA:1,2008-09-06T19:13:00Z,30.4367,-88.0117,1.041,0.79,1111122 
DISL,ioos:station:DISL:MBLA:1,2008-09-06T19:15:00Z,30.4367,-88.0117,0.592,0.88,1111122 
DISL,ioos:station:DISL:MBLA:1,2008-09-06T20:03:00Z,30.4367,-88.0117,3.024,0.52,1111122 
DISL,ioos:station:DISL:MBLA:1,2008-09-06T20:05:00Z,30.4367,-88.0117,2.447,0.55,1111122 
DISL,ioos:station:DISL:MBLA:1,2008-09-06T20:07:00Z,30.4367,-88.0117,1.939,0.6,1111122 
DISL,ioos:station:DISL:MBLA:1,2008-09-06T20:10:00Z,30.4367,-88.0117,1.43,0.65,1111122 
DISL,ioos:station:DISL:MBLA:1,2008-09-06T20:12:00Z,30.4367,-88.0117,1.077,0.72,1111122 
DISL,ioos:station:DISL:MBLA:1,2008-09-06T20:15:00Z,30.4367,-88.0117,0.578,0.84,1111122 
DISL,ioos:station:DISL:MBLA:1,2008-09-06T21:02:00Z,30.4367,-88.0117,3.034,0.49,1111122 
DISL,ioos:station:DISL:MBLA:1,2008-09-06T21:05:00Z,30.4367,-88.0117,2.555,0.51,1111122 